Flag for Australia Weather past 2 weeks in Perth, Western Australia, Australia

Now
50 °F

Sprinkles. Partly sunny.


Feels Like: 48 °F
Forecast: 50 / 65 °F
Wind: 6 mph from South

Location: Belmont Perth Airport

Current Time: Aug 22, 2014 at 7:00:14 AM

Latest Report: Aug 22, 2014 at 6:00 AM


Visibility: N/A

Pressure: 30.09 "Hg

Humidity: 100%

Dew point: 50 °F

Location of PerthLocation

Historic Weather in Perth — Graph

°F

Perth temperature yesterday

Maximum temperature yesterday: 70 °F (at 1:00 PM)
Minimum temperature yesterday: 57 °F (at 7:00 PM)
Average temperature yesterday: 62 °F

Past Weeks' High & Low Weather Summary

 TemperatureHumidityPressure
High79 °F (Aug 17, 1:00 PM)100% (Aug 7, 5:00 AM)30.39 "Hg (Aug 7, 5:00 AM)
Low46 °F (Aug 15, 7:00 AM)24% (Aug 14, 1:00 AM)29.77 "Hg (Aug 21, 5:30 AM)
Average61 °F68%30.16 "Hg
* Reported Aug 7 5:00 AM — Aug 22 5:30 AM, Perth, Weather by CustomWeather, © 2014

Note: Actual official high and low records may vary slightly from our data, if they occured in-between our weather recording intervals... More about our weather records

Advertising

Perth weather history for previous 24 hours

 ConditionsComfort  
Time TempWeatherWind HumidityBarometerVisibility
5:30 AM
Aug 22
52 °FPassing clouds.6 mph94%30.07 "HgN/A
5:00 AM55 °FPassing clouds.7 mph82%30.07 "HgN/A
4:30 AM57 °FPassing clouds.10 mph72%30.07 "HgN/A
4:00 AM59 °FPassing clouds.10 mph68%30.04 "HgN/A
3:30 AM59 °FPassing clouds.10 mph68%30.04 "HgN/A
3:00 AM59 °FPassing clouds.12 mph72%30.04 "HgN/A
2:30 AM59 °FPassing clouds.14 mph72%30.04 "HgN/A
2:00 AM59 °FClear.9 mph63%30.04 "Hg10 mi
1:30 AM59 °FPassing clouds.10 mph63%30.04 "HgN/A
1:00 AM59 °FPassing clouds.10 mph63%30.04 "HgN/A
12:30 AM57 °FPassing clouds.8 mph82%30.01 "HgN/A
12:00 AM57 °FPassing clouds.7 mph88%30.01 "HgN/A
11:30 PM
Aug 21
57 °FSprinkles. Partly cloudy.13 mph88%30.01 "HgN/A
11:00 PM59 °FSprinkles. Passing clouds.16 mph82%30.01 "Hg6 mi
10:30 PM59 °FPassing clouds.6 mph94%29.98 "HgN/A
10:00 PM59 °FSprinkles. Partly cloudy.6 mph94%29.98 "HgN/A
9:30 PM59 °FScattered showers. Partly cloudy.3 mph94%29.98 "HgN/A
9:00 PM59 °FSprinkles. Partly cloudy.6 mph94%29.98 "HgN/A
8:30 PM59 °FSprinkles. Passing clouds.8 mph94%29.98 "Hg5 mi
8:00 PM57 °FScattered showers. Partly cloudy.8 mph100%29.98 "HgN/A
7:30 PM59 °FSprinkles. Partly cloudy.7 mph94%29.95 "Hg6 mi
7:00 PM57 °FScattered showers. Partly cloudy.7 mph100%29.95 "HgN/A
6:30 PM59 °FScattered showers. Partly cloudy.6 mph94%29.95 "HgN/A
6:00 PM59 °FPassing clouds.6 mph88%29.92 "HgN/A
5:30 PM59 °FScattered showers. Passing clouds.7 mph94%29.92 "HgN/A
5:00 PM59 °FRain showers. Partly cloudy.12 mph94%29.92 "Hg2 mi
4:30 PM59 °FSprinkles. Broken clouds.9 mph94%29.92 "Hg4 mi
4:00 PM59 °FSprinkles. Broken clouds.10 mph94%29.89 "Hg4 mi
3:30 PM61 °FSprinkles. Partly sunny.14 mph94%29.89 "Hg3 mi
3:00 PM63 °FSprinkles. Partly sunny.12 mph83%29.89 "Hg4 mi
2:48 PM66 °FRain showers. Partly sunny.17 mph64%29.89 "Hg4 mi
2:30 PM66 °FScattered showers. Partly sunny.18 mph60%29.86 "HgN/A
2:00 PM68 °FPartly sunny.20 mph56%29.86 "HgN/A
1:30 PM70 °FPartly sunny.20 mph50%29.86 "HgN/A
1:00 PM70 °FScattered clouds.15 mph53%29.86 "HgN/A
12:30 PM68 °FScattered clouds.18 mph49%29.86 "HgN/A
12:00 PM68 °FScattered clouds.14 mph49%29.89 "HgN/A
11:30 AM66 °FPassing clouds.16 mph52%29.89 "HgN/A
11:00 AM68 °FPartly sunny.17 mph56%29.89 "HgN/A
10:00 AM66 °FBroken clouds.17 mph64%29.89 "HgN/A
9:30 AM66 °FPartly sunny.13 mph64%29.89 "HgN/A
9:00 AM66 °FPartly sunny.9 mph73%29.86 "HgN/A
8:30 AM64 °FScattered clouds.8 mph78%29.86 "HgN/A
8:00 AM63 °FScattered showers. Broken clouds.9 mph88%29.86 "Hg6 mi
7:30 AM61 °FSprinkles. Broken clouds.8 mph100%29.83 "Hg4 mi
7:00 AM61 °FSprinkles. Broken clouds.10 mph94%29.83 "Hg3 mi
Weather by CustomWeather, © 2014

See weather overviewHow to use our weather pages